Weather History for KMIB - July, 2014

Change the Weather History Date:

Friday, July 4, 2014

  Actual Average Record
Temperature  
Mean Temperature 71 °F -  
Max Temperature 86 °F 76 °F 90 °F (2015)
Min Temperature 56 °F 55 °F 48 °F (1997)
Cooling Degree Days 6    
Growing Degree Days 21 (Base 50)    
Moisture  
Dew Point 66 °F    
Average Humidity 87    
Maximum Humidity 100    
Minimum Humidity 61    
Precipitation  
Precipitation 0.00 in - - ()
Sea Level Pressure  
Sea Level Pressure 29.89 in    
Wind  
Wind Speed 7 mph (SSE)    
Max Wind Speed 9 mph    
Max Gust Speed -    
Visibility 10 miles    
Events      
Averages and records for this station are not official NWS values.
T = Trace of Precipitation, MM = Missing Value Source: NWS Daily Summary

Daily Weather History Graph

Daily Weather History Graph

Search for Another Location

Airport or City:

Trip Planner

Search our weather history database for the weather conditions in past years. The results will help you decide how hot, cold, wet, or windy it might be!

Date:

Astronomy

Jul. 04, 2014 Rise Set
Actual Time 5:50 AM CDT 9:49 PM CDT
Civil Twilight 5:08 AM CDT 10:30 PM CDT
Nautical Twilight 4:11 AM CDT 11:27 PM CDT
Astronomical Twilight 2:35 AM CDT 1:02 AM CDT
Moon 1:23 PM CDT (7/4) 12:39 AM CDT (7/4)
Length of Visible Light 17h 21m
Length of Day
15h 59m
Waxing Crescent, 42% of the Moon is Illuminated
Jul 4
Waxing Crescent
Jul 5
First Quarter
Jul 12
Full
Jul 18
Last Quarter
Jul 26
New

Hourly Weather History & Observations

Time (CDT) Temp. Heat Index Dew Point Humidity Pressure Visibility Wind Dir Wind Speed Gust Speed Precip Events Conditions
12:58 AM 57.7 °F - 57.6 °F 99% 30.07 in 10.0 mi SE 8.1 mph - N/A   Clear
1:58 AM 57.4 °F - 57.0 °F 99% 30.06 in 10.0 mi SE 8.1 mph - N/A   Clear
2:58 AM 56.7 °F - 56.7 °F 100% 30.03 in 10.0 mi SE 8.1 mph - N/A   Clear
3:58 AM 57.0 °F - 56.7 °F 99% 30.02 in 10.0 mi SE 8.1 mph - N/A   Clear
4:58 AM 57.7 °F - 57.6 °F 99% 29.99 in 10.0 mi ESE 8.1 mph - N/A   Scattered Clouds
5:58 AM 57.4 °F - 57.0 °F 99% 29.96 in 10.0 mi ESE 9.2 mph - N/A   Clear
6:58 AM 57.9 °F - 57.6 °F 99% 29.95 in 10.0 mi ESE 9.2 mph - N/A   Clear
7:58 AM 59.2 °F - 58.3 °F 97% 29.95 in 10.0 mi SE 5.8 mph - N/A   Clear
8:58 AM 61.2 °F - 59.0 °F 93% 29.92 in 10.0 mi ESE 9.2 mph - N/A   Clear
9:58 AM 64.4 °F - 61.5 °F 90% 29.90 in 10.0 mi ESE 6.9 mph - N/A   Clear
10:58 AM 66.7 °F - 64.2 °F 92% 29.90 in 10.0 mi SSE 8.1 mph - N/A   Clear
11:58 AM 70.5 °F - 65.5 °F 84% 29.89 in 10.0 mi SSE 3.5 mph - N/A   Clear
12:58 PM 73.8 °F - 68.0 °F 82% 29.88 in 10.0 mi ESE 8.1 mph - N/A   Clear
1:58 PM 78.1 °F - 68.4 °F 72% 29.86 in 10.0 mi SE 8.1 mph - N/A   Clear
2:58 PM 81.0 °F 84.2 °F 69.4 °F 68% 29.83 in 10.0 mi Variable 3.5 mph - N/A   Clear
3:58 PM 84.0 °F 88.4 °F 70.3 °F 63% 29.82 in 10.0 mi Variable 5.8 mph - N/A   Clear
4:58 PM 85.6 °F 90.8 °F 70.9 °F 61% 29.81 in 10.0 mi SSW 8.1 mph - N/A   Clear
5:58 PM 85.8 °F 92.6 °F 72.9 °F 65% 29.81 in 10.0 mi SW 8.1 mph - N/A   Clear
6:58 PM 86.0 °F 93.4 °F 73.6 °F 66% 29.79 in 10.0 mi SW 5.8 mph - N/A   Clear
7:58 PM 84.4 °F 93.1 °F 75.6 °F 75% 29.80 in 10.0 mi WSW 3.5 mph - N/A   Clear
8:58 PM 82.9 °F 91.8 °F 76.8 °F 82% 29.79 in 10.0 mi WSW 3.5 mph - N/A   Clear
9:58 PM 77.0 °F - 76.6 °F 99% 29.78 in 10.0 mi South 3.5 mph - N/A   Clear
10:58 PM 73.8 °F - 73.8 °F 100% 29.78 in 10.0 mi South 3.5 mph - N/A   Clear
11:58 PM 73.2 °F - 73.2 °F 100% 29.78 in 10.0 mi South 2.3 mph - N/A   Clear